CW9463 Weather Reports


time (UTC)temp
F
wind
direction
speed
knots
gust
knots
rain 1hr
in
rain 24hr
in
rain mn
in
humidity
%
barometer
mb
20260901074520 73 148 0.0 0.0 0.01 0.28 0.01 95 1012.4
20260901073018 73 148 0.0 0.0 0.00 0.27 0.00 95 1012.4
20260901070017 73 148 0.0 0.0 0.00 0.27 0.00 95 1012.4
20260901064516 73 148 0.0 0.0 0.00 0.27 0.00 95 1012.3
20260901063018 73 148 0.0 0.0 0.00 0.27 0.00 95 1012.1
20260901060012 74 148 0.0 0.0 0.00 0.27 0.00 95 1012.0
20260901054512 74 148 0.0 0.0 0.00 0.27 0.00 95 1012.2
20260901053009 74 148 0.0 0.0 0.00 0.27 0.00 95 1012.3
20260901051508 74 148 0.0 0.0 0.00 0.27 0.00 95 1012.2
20260901050006 75 148 0.0 0.9 0.00 0.27 0.00 95 1012.2
20260901043006 75 124 0.0 0.9 0.00 0.27 0.08 95 1012.4
20260901041507 75 53 0.0 0.9 0.00 0.27 0.08 95 1012.5
20260901040004 75 82 0.0 0.9 0.00 0.27 0.08 95 1012.3
20260901033001 76 82 0.0 0.0 0.00 0.27 0.08 95 1012.4
20260901031501 76 53 0.0 0.0 0.00 0.27 0.08 95 1012.4
20260901030101 76 53 0.0 0.0 0.00 0.27 0.08 95 1012.3
20260901023059 76 53 0.0 0.0 0.00 0.28 0.08 95 1012.7
20260901021604 76 74 0.0 0.0 0.00 0.28 0.08 95 1012.5
20260901020059 76 62 0.0 0.0 0.00 0.28 0.08 95 1012.3
20260901013059 76 62 0.0 0.0 0.00 0.28 0.08 94 1012.3
20260901011557 76 62 0.0 0.0 0.00 0.28 0.08 94 1012.3
20260901010056 77 62 0.0 0.0 0.00 0.28 0.08 93 1012.1
20260901003055 78 62 0.0 0.0 0.08 0.28 0.08 93 1012.1
20260901001557 78 62 0.0 0.9 0.08 0.28 0.08 92 1011.8
20260831233021 81 65 0.0 0.0 0.00 0.21 0.00 89 1011.7
20260831231519 82 65 0.0 0.0 0.00 0.21 0.00 89 1012.5
20260831230017 82 65 0.0 0.0 0.00 0.21 0.00 88 1012.0
20260831223103 84 65 0.0 0.0 0.00 0.22 0.00 85 1012.0